This is the latest recevied weather packets stored in our database for station/object DL1GHN-6. If no packets are shown the sender has not sent any weather packets the latest 10 day(s).
| Time | Temp. | Humidity | Pressure | Rain* | Wind** | Luminosity | Snow |
|---|---|---|---|---|---|---|---|
| 1777882070 | 16.67° C | 70% | 1014.4 hPa | 0 mm | - | 480 W/m² | - |
| 1777881771 | 16.11° C | 69% | 1014.4 hPa | 0 mm | - | 441 W/m² | - |
| 1777881471 | 16.11° C | 69% | 1014.4 hPa | 0 mm | - | 258 W/m² | - |
| 1777881171 | 15.56° C | 71% | 1014.4 hPa | 0 mm | - | 232 W/m² | - |
| 1777880870 | 15.56° C | 68% | 1014.3 hPa | 0 mm | - | 257 W/m² | - |
| 1777880570 | 15.56° C | 68% | 1014.3 hPa | 0 mm | - | 218 W/m² | - |
| 1777880271 | 15.56° C | 72% | 1014.3 hPa | 0 mm | - | 230 W/m² | - |
| 1777879970 | 15° C | 74% | 1014.2 hPa | 0 mm | - | 301 W/m² | - |
| 1777879670 | 14.44° C | 77% | 1014.1 hPa | 0 mm | - | 257 W/m² | - |
| 1777879371 | 13.89° C | 76% | 1014 hPa | 0 mm | - | 200 W/m² | - |
| 1777879070 | 13.33° C | 80% | 1014 hPa | 0 mm | - | 172 W/m² | - |
| 1777878771 | 12.78° C | 79% | 1013.9 hPa | 0 mm | - | 142 W/m² | - |
| 1777878470 | 12.78° C | 79% | 1013.9 hPa | 0 mm | - | 127 W/m² | - |
| 1777878170 | 12.78° C | 79% | 1013.9 hPa | 0 mm | - | 113 W/m² | - |
| 1777877870 | 12.22° C | 80% | 1014 hPa | 0 mm | - | 98 W/m² | - |
| 1777877571 | 12.22° C | 79% | 1014 hPa | 0 mm | - | 90 W/m² | - |
| 1777877269 | 12.22° C | 82% | 1014.1 hPa | 0 mm | - | 91 W/m² | - |
| 1777876970 | 11.67° C | 83% | 1014 hPa | 0 mm | - | 98 W/m² | - |
| 1777876670 | 11.67° C | 83% | 1014 hPa | 0 mm | - | 100 W/m² | - |
| 1777876371 | 11.11° C | 84% | 1014.2 hPa | 0 mm | - | 104 W/m² | - |
| 1777876071 | 11.11° C | 84% | 1014.1 hPa | 0 mm | - | 111 W/m² | - |
| 1777875771 | 11.11° C | 84% | 1014.1 hPa | 0 mm | - | 109 W/m² | - |
| 1777875470 | 10.56° C | 85% | 1014.1 hPa | 0 mm | - | 98 W/m² | - |
| 1777875171 | 10.56° C | 85% | 1014.1 hPa | 0 mm | - | 86 W/m² | - |
| 1777874870 | 10.56° C | 85% | 1014 hPa | 0 mm | - | 83 W/m² | - |
* Rain latest hour (hover to see other rain measurements)
** Current wind speed in m/s (hover to see current wind gust speed)